CZ-3C DEB, 42469

Orbit data source: Space-Track

CZ-3C DEB, 42469 is space debris in HEO originally from a launch on Sun, 31 Oct 2010 UTC launched from the Xichang Space Center, China (XSC). Debris objects in space refer to the collection of defunct objects orbiting the Earth. Examples of debris include non-operational satellites, rocket bodies, and fragments generated from explosions, collisions, or faulty payload assembly.

Loading next visibility...
Identifier
42469, 2010-057BJ
Orbit
HEO
Country
Flag of CNCN / PRC
Related business
Manufacturer
CALT
Mission
Spacecraft
Bus & Motor
Unknown
Mass
Unknown
Launch date (UTC)
2010-10-31 (16 years ago)
Launch vehicle
Unknown
Launch site
Xichang Space Center, China (XSC)
Object type
Payload
Rocket body
Debris
Shape & HBR
Unknown shape, 0.2 m
Radar Cross Section
Medium (>0.1 m² and <1 m²)

Expand to show TLE details & history
Last TLE update: 8 hours ago

TLE from 8 hours ago
0 CZ-3C DEB
1 42469U 10057BJ  26266.13970499 -.00000016  00000-0  15860-3 0  9993
2 42469  20.4087 255.8608 7176757 161.4445 252.3985  2.32009689  1854
Epoch: 2026-09-23T03:21Z
TLE epoch observation values (Epoch: 2026-09-23T03:21:10.511Z)
Latitude
-0.00005°
Longitude
-156.43267°
Altitude
30,154.934 km
Speed
2.299 km/s
True Right ascension
17h 03m 25s
True Declination
0° 00' 00"
Sunlit
Object was in daylight at epoch
Visualization orbit readout
Latitude
Unknown
Longitude
Unknown
Altitude
Unknown
Speed
Unknown
Apparent Right ascension
Unknown
Apparent Declination
Unknown
Sunlit
N/A
Visualization observer readout
Local Sidereal Time
04:07:01
Azimuth
Unknown
Elevation
Unknown
Doppler factor
Unknown
Orbital elements
Apogee altitude
35,029.989 km
Perigee altitude
427.874 km
Semi-major axis
24,107.069 km
Eccentricity
0.71768
Inclination
20.4087°
RAAN
255.8608°
Arg. of periapsis
161.4445°
True anomaly
198.55468°
Mean anomaly
252.3985°
Eccentric anomaly
223.89075°
Mean motion
0.57986 °/min
Orbital period
620.83 mins
BSTAR
0.0001586
Loading maneuver chart data...
Computing Atmospheric mass density...
Loading historical data...
Loading historical data...
Loading historical data...
Loading historical data...
Loading historical data...
Loading historical data...
Loading historical data...

Documentation

Showing up to 5 results
|